Location: Unspecified
(52.4292°N, 19.3359°E)
Time: 01:24:33
(UTC+02:00)

Vanguard 1 Rocket - Pass Details

Date: 20 May 2024
Orbit: 649 x 4221 km, 34.3° (Epoch: 13 June)

Event Time Altitude Azimuth Distance (km) Brightness Sun altitude
Rises 13:58:42 0° 257° (WSW) 6,226 12.0 54.2°
Reaches altitude 10° 14:04:37 10° 245° (WSW) 4,500 11.6 53.7°
Maximum altitude 14:12:13 21° 202° (SSW) 2,750 11.0 53.0°
Drops below altitude 10° 14:17:22 10° 155° (SSE) 2,888 10.3 52.5°
Sets 14:20:09 0° 138° (SE) 3,523 10.5 52.3°
